Location: Trois-Rivi�res
(46.3500°N, 72.5500°W)
Time: 16:37:08
(UTC-04:00)

Vanguard 2 Rocket - Visible Passes

Search period start: 18 July 2018 00:00
Search period end: 28 July 2018 00:00
Orbit: 554 x 3327 km, 32.9° (Epoch: 17 July)

Date Brightness Start Highest point End Pass type
(mag) Time Alt. Az. Time Alt. Az. Time Alt. Az.
18 Jul 8.7 03:54:26 13° SSW 03:59:41 28° SSE 04:08:56 10° ESE visible
19 Jul 8.6 02:58:17 17° S 03:00:35 19° SSE 03:06:46 10° ESE visible
20 Jul 9.1 02:02:08 11° SE 02:02:08 11° SE 02:03:34 10° SE visible
20 Jul 8.6 04:07:57 13° SW 04:13:23 31° SSE 04:22:55 10° ESE visible
21 Jul 8.3 03:11:48 20° S 03:14:10 24° SSE 03:21:08 10° ESE visible
22 Jul 8.7 02:15:42 15° SE 02:15:42 15° SE 02:19:16 10° ESE visible
22 Jul 8.5 04:21:31 11° SW 04:27:14 32° S 04:36:41 10° ESE visible
23 Jul 8.1 03:25:25 21° SSW 03:27:56 26° SSE 03:35:11 10° ESE visible
24 Jul 8.4 02:29:22 19° SSE 02:29:22 19° SSE 02:33:50 10° ESE visible
24 Jul 8.5 04:35:29 10° WSW 04:41:12 31° S 04:50:14 10° ESE visible
25 Jul 8.0 03:39:10 20° SSW 03:41:51 27° S 03:49:00 10° ESE visible
26 Jul 8.2 02:43:11 21° SSE 02:43:11 21° SSE 02:47:58 10° ESE visible
27 Jul 8.1 03:53:05 18° SW 03:55:51 25° S 04:02:33 10° SE visible
